Weather in Il'skiy

Russia / Krasnodar Krai     44°50′36″N   38°34′06″E
temp.,
°C
wind,
m/s
gust,
m/s
humid.,
%
clouds,
%
prec.,
mm/h
press.,
hPa
HPBL,
m
2 august, mon
mon200:00+21wsw22690 0.0 101124
03:00+21sw22690 0.0 101114
06:00+21sw22680 0.0 101235
09:00+29wnw22440 0.0 1012762
12:00+35nw13290 0.0 10102085
15:00+36ese232340 0.0 10093557
18:00+32w45440 0.1 10091168
21:00+24w24580 0.1 101066
3 august, tue
tue300:00+22wsw22600 0.0 101130
03:00+22sw22620 0.0 101119
06:00+22wsw22640 0.0 101227
09:00+30wnw12410 0.0 1012731
12:00+35nw33260 0.0 10112286
15:00+37w552385 0.0 10103492
18:00+33nw56320 0.0 10101290
21:00+25wnw25520 0.0 101286
4 august, wed
wed400:00+23wnw116130 0.0 101313
03:00+21ssw11710 0.0 101311
06:00+21nnw11731 0.0 101411
09:00+29ne224960 0.0 1014622
12:00+35ene11305 0.0 10132206
15:00+36wnw122490 0.0 10113235
18:00+31nne144478 0.3 1012700
21:00+21w01744 0.4 101515
5 august, thu
thu500:00+20ese01760 0.0 101511
03:00+20e11770 0.0 101511
06:00+19ese01800 0.0 101511
09:00+27ene24504 0.0 1014644
12:00+33e34355 0.0 10131704
15:00+35ese32301 0.0 10112694
18:00+34w22360 0.0 10101421
21:00+25wnw37510 0.0 1010153
6 august, fri
fri600:00+23wsw01601 0.0 100911
03:00+21s22650 0.0 100930
06:00+22s239217 0.0 100973
09:00+29se12590 0.0 1008775
12:00+35e353557 0.0 10071626
15:00+37sse2325100 0.0 10052531
18:00+34se244199 0.0 10041043
21:00+26wsw226399 0.0 100418